Location: ??
(35.5653°N, 139.6194°E)
Time: 16:43:42
(UTC+00:00)

Cosmos 2360 Rocket - Pass Details

Date: 20 November 2019
Orbit: 832 x 847 km, 71.0° (Epoch: 14 December)

Event Time Altitude Azimuth Distance (km) Brightness Sun altitude
Exits shadow 19:21:14 - 353° (N) 2,832 4.8 -24.4°
Reaches altitude 10° 19:22:17 10° 358° (N) 2,475 4.5 -24.2°
Maximum altitude 19:27:22 33° 61° (ENE) 1,401 3.8 -23.2°
Drops below altitude 10° 19:32:24 10° 124° (SE) 2,460 5.5 -22.2°
Sets 19:35:04 0° 134° (SE) 3,390 6.2 -21.7°
